Regional Weather Roundup
Issued by NWS

Home | Current Version | Previous Version | Graphics & Text | Print | Product List | Glossary On
Versions: 1 2 3 4 5 6 7 8 9 10 11 12 13 14 15 16 17 18 19 20 21 22 23 24 25 26 27 28 29 30 31 32 33 34 35 36 37 38 39 40 41 42 43 44 45 46 47 48 49 50
000
ASUS43 KMPX 220801
RWRMN
WEATHER ROUNDUP FOR MINNESOTA
NATIONAL WEATHER SERVICE TWIN CITIES/CHANHASSEN MN
300 AM CDT MON SEP 22 2014


NOTE: "FAIR" INDICATES FEW OR NO CLOUDS BELOW 12,000 FEET WITH NO
SIGNIFICANT WEATHER AND/OR OBSTRUCTIONS TO VISIBILITY. N/A MEANS
CURRENT SKY AND/OR WEATHER CONDITIONS ARE NOT AVAILABLE.

MNZ060>063-068>070-220900-
   Twin Cities Metro

CITY           SKY/WX    TMP DP  RH WIND       PRES   REMARKS
TWIN CITIES    CLEAR     52  48  86 SW3       30.22F
ST PAUL        CLEAR     49  49 100 CALM      30.23F
CRYSTAL        CLEAR     49  45  86 CALM      30.21F
BLAINE         CLEAR     48  48 100 CALM      30.22S
LAKEVILLE      CLEAR     46  46 100 CALM      30.22F
EDEN PRAIRIE   CLEAR     50  49  96 SW3       30.21F
SOUTH ST PAUL  CLEAR     50  48  93 CALM      30.22F
LAKE ELMO        N/A     45  43  93 CALM      30.23S FOG
$$
MNZ001>005-007-008-013>017-022>024-027-028-220900-
   Northwest Minnesota

CITY           SKY/WX    TMP DP  RH WIND       PRES   REMARKS
BEMIDJI        CLEAR     45  44  95 SW3       30.18F
HALLOCK        CLEAR     48  46  93 S8        30.13S
ROSEAU         CLEAR     52  46  82 SW9       30.14S
WARROAD        CLEAR     50  46  87 SW9       30.14S
THIEF RVR FALL CLEAR     46  45  93 S7        30.16F
CROOKSTON      CLEAR     46  46 100 S7        30.17F
FOSSTON        CLEAR     43  41  93 CALM      30.19F
DETROIT LAKES  CLEAR     46  46 100 S3        30.21F
MOORHEAD       CLEAR     50  50 100 S9        30.20F
PARK RAPIDS    CLEAR     43  41  93 CALM      30.20F
MAHNOMEN       FAIR      44  43  95 S6        30.19S
$$
MNZ006-009>011-018-025>026-220900-
   North Central Minnesota

CITY           SKY/WX    TMP DP  RH WIND       PRES   REMARKS
BAUDETTE       CLEAR     46  45  96 SW5       30.13F
FLAG ISLAND    CLEAR     52  46  82 SW16      30.09F
INTL FALLS     CLEAR     42  41  96 SW3       30.14S
WASKISH        CLEAR     45  43  93 CALM      30.16S
BIG FORK       FOG       43  41  93 CALM      30.17F VSB 1/2
LONGVILLE      CLEAR     41  41 100 CALM      30.20S
GRAND RAPIDS   CLEAR     48  45  87 W6        30.19S
CRANE LAKE     PTCLDY    41  39  93 CALM      30.16S
ORR            CLEAR     46  43  87 CALM      30.13F
COOK             N/A     45  43  93 CALM      30.16F FOG
WALKER         FAIR      44  43  98 CALM      30.20S
$$
MNZ012-019>021-037-220900-
   Northeast Minnesota

CITY           SKY/WX    TMP DP  RH WIND       PRES   REMARKS
DULUTH         MOCLDY    49  45  86 W7        30.17F
ELY            CLEAR     48  46  93 SW6       30.14F
HIBBING        FOG       40  38  93 CALM      30.17S VSB 1/4
EVELETH        PTCLDY    45  45 100 W3        30.18S
DULUTH HARBOR  CLEAR     48  46  93 SW7       30.17F
TWO HARBORS    MOCLDY    50  45  81 W3        30.14F
SILVER BAY     CLEAR     48  46  93 CALM      30.13F
GRAND MARAIS     N/A     50  47  89 CALM      30.11F
G MARAIS ARPRT CLOUDY    45  39  81 SW3       30.12F
$$
MNZ029>031-032-039>041-046>048-054>057-064-220900-
   West Central Minnesota

CITY           SKY/WX    TMP DP  RH WIND       PRES   REMARKS
FERGUS FALLS   CLEAR     46  45  93 S5        30.23S
WHEATON        CLEAR     46  45  93 S5        30.23F
MORRIS         CLEAR     45  45 100 S3        30.22F FOG
ALEXANDRIA     CLEAR     46  45  96 SW3       30.24S
ELBOW LAKE     FAIR      46  45  96 SE6       30.22F
WADENA         CLEAR     41  39  93 CALM      30.21F
GLENWOOD       FOG       45  45 100 SW5       30.23F VSB 1/2
APPLETON       FOG       45  43  93 CALM      30.23F VSB 1
BENSON         MOCLDY    43  41  93 CALM      30.23F FOG
ORTONVILLE     CLEAR     46  43  87 S3        30.23S
MADISON        CLEAR     45  45 100 SW3       30.24S
WILLMAR        MOCLDY    43  41  93 CALM      30.25F FOG
$$
MNZ033>034-036-042>043-049>051-058-059-220900-
   Central Minnesota

CITY           SKY/WX    TMP DP  RH WIND       PRES   REMARKS
ST CLOUD       CLEAR     47  44  90 CALM      30.22F FOG
SAUK CENTRE    FAIR      41  41 100 CALM      30.23F FOG
PAYNESVILLE    FOG       38  38 100 CALM      30.24F VSB 3/4
AITKIN         CLOUDY    43  37  81 CALM      30.19S VSB 1/4
PINE RIVER     CLEAR     39  39 100 CALM      30.24S
BRAINERD       CLEAR     41  41 100 S3        30.22S FOG
STAPLES        CLEAR     43  43 100 CALM      30.21F FOG
LONG PRAIRIE   FAIR      41  41 100 CALM      30.23S
LITTLE FALLS   CLEAR     43  41  93 CALM      30.22F
LITCHFIELD     CLEAR     46  46 100 CALM      30.24F
BUFFALO        CLEAR     48  46  91 CALM      30.24S
MAPLE LAKE     CLEAR     47  46  99 CALM      30.23F FOG
$$
MNZ037-044-045-052-053-220900-
   East Central Minnesota

CITY           SKY/WX    TMP DP  RH WIND       PRES   REMARKS
PRINCETON        N/A     43  41  93 W2        30.23S VSB 1/2
MORA           CLEAR     41  41 100 CALM      30.22F FOG
CAMBRIDGE      HAZE      46  39  76 CALM      30.20S VSB 1/2
RUSH CITY      CLEAR     42  41  96 CALM      30.21F FOG
MOOSE LAKE     CLEAR     43  43 100 SW3       30.18F
HINCKLEY       FAIR      43  43 100 CALM      30.20F FOG
CLOQUET        CLEAR     46  45  93 W6        30.18F
MCGREGOR         N/A     41  39  93 CALM      30.21S VSB 3/4
$$
MNZ071>073-080-081-089-090-097-098-220900-
   Southwest Minnesota

CITY           SKY/WX    TMP DP  RH WIND       PRES   REMARKS
MONTEVIDEO     CLEAR     46  45  93 SW3       30.25F
GRANITE FALLS  CLEAR     41  41 100 CALM      30.26F
CANBY          CLEAR     45  44  96 CALM      30.25F
MARSHALL       CLEAR     46  41  81 S5        30.24F
REDWOOD FALLS  CLEAR     47  46  97 CALM      30.25S
OLIVIA         CLEAR     43  41  93 CALM      30.24S
PIPESTONE      CLEAR     46  43  87 CALM      30.26S
WINDOM         CLEAR     43  43 100 CALM      30.26F
WORTHINGTON    CLEAR     41  39  93 CALM      30.27F
JACKSON        CLEAR     45  43  93 CALM      30.27S
TRACY          CLEAR     49  46  90 CALM      30.26S
SLAYTON        CLEAR     44  43  93 CALM      30.27S
$$
MNZ065>067-074>077-082>085-091>093-220900-
   South Central Minnesota

CITY           SKY/WX    TMP DP  RH WIND       PRES   REMARKS
MANKATO        CLEAR     48  43  81 W3        30.24F
NEW ULM        CLEAR     43  43 100 W3        30.25S
ST JAMES       CLEAR     45  43  93 SW5       30.27S
FAIRMONT       CLEAR     45  39  81 W5        30.26S
GLENCOE        CLEAR     47  44  90 CALM      30.23F
FARIBAULT      CLEAR     48  43  81 CALM      30.24F
OWATONNA         N/A     45  43  93 CALM      30.24F FOG
WASECA         CLEAR     43  39  87 CALM      30.25F FOG
ALBERT LEA     CLEAR     48  48 100 CALM      30.25F
$$
MNZ078>079-086>088-094>096-220900-
   Southeast Minnesota

CITY           SKY/WX    TMP DP  RH WIND       PRES   REMARKS
ROCHESTER      CLEAR     47  45  93 W8        30.24S
RED WING       CLEAR     45  43  93 CALM      30.22S
STANTON        CLEAR     45  43  93 S3        30.22F
DODGE CENTER   PTCLDY    45  43  93 W3        30.24S
WINONA         CLEAR     46  45  93 CALM      30.22S
AUSTIN         CLEAR     46  45  93 CALM      30.25R
PRESTON        CLEAR     46  47 100 NW5       30.23F
$$
ABBREVIATIONS USED IN REMARKS
   TC - TEMPERATURES IN CELSIUS
  WCI - WIND CHILL INDEX
   HX - HEAT INDEX
  VSB - VISIBILITY
$$


USA.gov is the U.S. government's official web portal to all federal, state and local government web resources and services.